Time,TemperatureF,DewpointF,PressureIn,WindDirection,WindDirectionDegrees,WindSpeedMPH,WindSpeedGustMPH,Humidity,HourlyPrecipIn,Conditions,Clouds,dailyrainin,SoftwareType,DateUTC
2013-03-27 00:04:00,34.7,26.6,30.06,WSW,248,0.4,2.7,72,0.00,,,0.00,WUHU216HW,2013-03-27 04:04:00,
2013-03-27 00:09:00,34.4,26.2,30.06,WSW,248,0.9,1.8,72,0.00,,,0.00,WUHU216HW,2013-03-27 04:09:00,
2013-03-27 00:14:00,33.8,26.0,30.07,SSW,203,0.0,0.9,73,0.00,,,0.00,WUHU216HW,2013-03-27 04:14:00,
2013-03-27 00:19:00,33.3,25.8,30.06,WSW,248,0.9,0.9,74,0.00,,,0.00,WUHU216HW,2013-03-27 04:19:00,
2013-03-27 00:24:00,33.3,25.5,30.07,SW,225,1.1,2.0,73,0.00,,,0.00,WUHU216HW,2013-03-27 04:24:00,
2013-03-27 00:29:00,33.1,25.4,30.07,WSW,248,0.2,2.0,73,0.00,,,0.00,WUHU216HW,2013-03-27 04:29:00,
2013-03-27 00:34:00,32.8,25.4,30.07,West,270,0.0,1.6,74,0.00,,,0.00,WUHU216HW,2013-03-27 04:34:00,
2013-03-27 00:39:00,32.6,25.2,30.07,WSW,248,1.8,1.8,74,0.00,,,0.00,WUHU216HW,2013-03-27 04:39:00,
2013-03-27 00:44:00,32.6,25.8,30.07,West,270,1.1,1.8,76,0.00,,,0.00,WUHU216HW,2013-03-27 04:44:00,
2013-03-27 00:49:00,32.6,25.8,30.07,West,270,0.7,1.8,76,0.00,,,0.00,WUHU216HW,2013-03-27 04:49:00,
2013-03-27 00:54:00,32.9,26.2,30.07,WSW,248,1.1,1.3,76,0.00,,,0.00,WUHU216HW,2013-03-27 04:54:00,
2013-03-27 00:59:00,33.3,26.2,30.07,WSW,248,1.6,1.6,75,0.00,,,0.00,WUHU216HW,2013-03-27 04:59:00,
2013-03-27 01:04:00,33.5,26.6,30.07,SW,225,0.7,1.6,76,0.00,,,0.00,WUHU216HW,2013-03-27 05:04:00,
2013-03-27 01:09:00,33.5,26.3,30.07,WSW,248,3.4,3.4,75,0.00,,,0.00,WUHU216HW,2013-03-27 05:09:00,
2013-03-27 01:14:00,33.7,26.5,30.07,WSW,248,0.7,3.4,75,0.00,,,0.00,WUHU216HW,2013-03-27 05:14:00,
2013-03-27 01:19:00,33.3,26.2,30.07,WSW,248,0.7,1.3,75,0.00,,,0.00,WUHU216HW,2013-03-27 05:19:00,
2013-03-27 01:24:00,33.1,26.0,30.07,WSW,248,0.7,1.1,75,0.00,,,0.00,WUHU216HW,2013-03-27 05:24:00,
2013-03-27 01:29:00,33.1,26.0,30.07,WSW,248,0.9,1.1,75,0.00,,,0.00,WUHU216HW,2013-03-27 05:29:00,
2013-03-27 01:34:00,33.1,26.3,30.07,WSW,248,1.6,1.6,76,0.00,,,0.00,WUHU216HW,2013-03-27 05:34:00,
2013-03-27 01:39:00,33.3,26.5,30.07,West,270,1.1,1.6,76,0.00,,,0.00,WUHU216HW,2013-03-27 05:39:00,
2013-03-27 01:44:00,33.5,26.3,30.07,West,270,1.1,1.6,75,0.00,,,0.00,WUHU216HW,2013-03-27 05:44:00,
2013-03-27 01:49:00,33.7,26.5,30.07,West,270,0.7,1.1,75,0.00,,,0.00,WUHU216HW,2013-03-27 05:49:00,
2013-03-27 01:54:00,34.2,27.0,30.07,West,270,0.7,1.1,75,0.00,,,0.00,WUHU216HW,2013-03-27 05:54:00,
2013-03-27 01:59:00,34.9,27.4,30.07,NNW,338,1.8,1.8,74,0.00,,,0.00,WUHU216HW,2013-03-27 05:59:00,
2013-03-27 02:04:00,34.9,27.7,30.07,WNW,293,0.7,1.8,75,0.00,,,0.00,WUHU216HW,2013-03-27 06:04:00,
2013-03-27 02:09:00,34.7,27.9,30.08,West,270,0.7,1.3,76,0.00,,,0.00,WUHU216HW,2013-03-27 06:09:00,
2013-03-27 02:14:00,34.2,27.4,30.08,WSW,248,0.9,1.6,76,0.00,,,0.00,WUHU216HW,2013-03-27 06:14:00,
2013-03-27 02:19:00,34.2,27.4,30.08,West,270,1.1,1.6,76,0.00,,,0.00,WUHU216HW,2013-03-27 06:19:00,
2013-03-27 02:24:00,34.2,27.4,30.07,West,270,1.3,1.6,76,0.00,,,0.00,WUHU216HW,2013-03-27 06:24:00,
2013-03-27 02:29:00,34.2,27.4,30.08,West,270,1.1,1.8,76,0.00,,,0.00,WUHU216HW,2013-03-27 06:29:00,
2013-03-27 02:34:00,34.2,27.4,30.07,West,270,1.1,1.8,76,0.00,,,0.00,WUHU216HW,2013-03-27 06:34:00,
2013-03-27 02:39:00,34.2,27.4,30.08,West,270,1.3,1.6,76,0.00,,,0.00,WUHU216HW,2013-03-27 06:39:00,
2013-03-27 02:44:00,34.2,27.4,30.08,West,270,1.6,2.0,76,0.00,,,0.00,WUHU216HW,2013-03-27 06:44:00,
2013-03-27 02:49:00,34.2,27.4,30.08,West,270,1.8,2.0,76,0.00,,,0.00,WUHU216HW,2013-03-27 06:49:00,
2013-03-27 02:54:00,33.8,27.0,30.07,West,270,1.8,2.0,76,0.00,,,0.00,WUHU216HW,2013-03-27 06:54:00,
2013-03-27 02:59:00,33.7,27.1,30.08,West,270,0.9,1.8,77,0.00,,,0.00,WUHU216HW,2013-03-27 06:59:00,
2013-03-27 03:04:00,33.8,27.3,30.08,West,270,1.6,1.8,77,0.00,,,0.00,WUHU216HW,2013-03-27 07:04:00,
2013-03-27 03:09:00,34.0,27.5,30.07,West,270,1.6,1.6,77,0.00,,,0.00,WUHU216HW,2013-03-27 07:09:00,
2013-03-27 03:14:00,33.8,27.3,30.07,WSW,248,1.3,1.6,77,0.00,,,0.00,WUHU216HW,2013-03-27 07:14:00,
2013-03-27 03:19:00,33.5,27.3,30.07,WNW,293,0.9,2.5,78,0.00,,,0.00,WUHU216HW,2013-03-27 07:19:00,
2013-03-27 03:24:00,33.1,27.0,30.07,WNW,293,1.1,2.7,78,0.00,,,0.00,WUHU216HW,2013-03-27 07:24:00,
2013-03-27 03:29:00,33.5,26.6,30.07,West,270,1.8,2.7,76,0.00,,,0.00,WUHU216HW,2013-03-27 07:29:00,
2013-03-27 03:34:00,33.5,26.6,30.06,West,270,2.0,2.5,76,0.00,,,0.00,WUHU216HW,2013-03-27 07:34:00,
2013-03-27 03:39:00,33.1,26.3,30.06,WSW,248,1.6,2.5,76,0.00,,,0.00,WUHU216HW,2013-03-27 07:39:00,
2013-03-27 03:44:00,32.8,26.3,30.06,WNW,293,0.4,1.8,77,0.00,,,0.00,WUHU216HW,2013-03-27 07:44:00,
2013-03-27 03:49:00,32.4,26.0,30.07,WSW,248,0.4,1.6,77,0.00,,,0.00,WUHU216HW,2013-03-27 07:49:00,
2013-03-27 03:54:00,32.0,25.7,30.07,West,270,0.2,1.1,77,0.00,,,0.00,WUHU216HW,2013-03-27 07:54:00,
2013-03-27 03:59:00,32.2,25.8,30.07,WSW,248,0.4,1.1,77,0.00,,,0.00,WUHU216HW,2013-03-27 07:59:00,
2013-03-27 04:04:00,32.6,25.8,30.07,WSW,248,1.1,1.1,76,0.00,,,0.00,WUHU216HW,2013-03-27 08:04:00,
2013-03-27 04:09:00,32.4,25.7,30.07,WSW,248,0.7,1.1,76,0.00,,,0.00,WUHU216HW,2013-03-27 08:09:00,
2013-03-27 04:14:00,32.0,25.4,30.07,SW,225,0.0,1.1,76,0.00,,,0.00,WUHU216HW,2013-03-27 08:14:00,
2013-03-27 04:19:00,31.5,24.9,30.07,SW,225,0.4,0.7,76,0.00,,,0.00,WUHU216HW,2013-03-27 08:19:00,
2013-03-27 04:24:00,31.0,24.9,30.07,SW,225,0.0,0.9,78,0.00,,,0.00,WUHU216HW,2013-03-27 08:24:00,
2013-03-27 04:29:00,30.6,24.6,30.06,SSE,158,0.4,0.9,78,0.00,,,0.00,WUHU216HW,2013-03-27 08:29:00,
2013-03-27 04:34:00,29.9,23.9,30.06,SE,135,0.0,0.4,78,0.00,,,0.00,WUHU216HW,2013-03-27 08:34:00,
2013-03-27 04:39:00,29.5,23.8,30.06,SE,135,0.2,0.4,79,0.00,,,0.00,WUHU216HW,2013-03-27 08:39:00,
2013-03-27 04:44:00,29.2,23.1,30.06,SE,135,0.0,0.4,78,0.00,,,0.00,WUHU216HW,2013-03-27 08:44:00,
2013-03-27 04:49:00,28.8,23.1,30.06,SE,135,0.0,0.0,79,0.00,,,0.00,WUHU216HW,2013-03-27 08:49:00,
2013-03-27 04:54:00,28.4,22.8,30.06,SSE,158,0.9,0.9,79,0.00,,,0.00,WUHU216HW,2013-03-27 08:54:00,
2013-03-27 04:59:00,28.4,23.3,30.06,SSW,203,0.4,1.1,81,0.00,,,0.00,WUHU216HW,2013-03-27 08:59:00,
2013-03-27 05:04:00,28.4,23.0,30.06,SW,225,1.1,1.1,80,0.00,,,0.00,WUHU216HW,2013-03-27 09:04:00,
2013-03-27 05:09:00,28.8,23.4,30.06,WSW,248,1.8,1.8,80,0.00,,,0.00,WUHU216HW,2013-03-27 09:09:00,
2013-03-27 05:14:00,28.8,23.4,30.06,WSW,248,2.2,2.2,80,0.00,,,0.00,WUHU216HW,2013-03-27 09:14:00,
2013-03-27 05:19:00,29.0,23.6,30.06,South,180,1.6,2.2,80,0.00,,,0.00,WUHU216HW,2013-03-27 09:19:00,
2013-03-27 05:24:00,29.2,23.5,30.06,WSW,248,1.3,1.8,79,0.00,,,0.00,WUHU216HW,2013-03-27 09:24:00,
2013-03-27 05:29:00,29.2,23.5,30.06,WNW,293,0.9,1.8,79,0.00,,,0.00,WUHU216HW,2013-03-27 09:29:00,
2013-03-27 05:34:00,29.5,23.5,30.06,WSW,248,2.7,2.7,78,0.00,,,0.00,WUHU216HW,2013-03-27 09:34:00,
2013-03-27 05:39:00,29.5,23.1,30.06,West,270,1.8,2.7,77,0.00,,,0.00,WUHU216HW,2013-03-27 09:39:00,
2013-03-27 05:44:00,29.5,23.5,30.06,WSW,248,2.0,2.7,78,0.00,,,0.00,WUHU216HW,2013-03-27 09:44:00,
2013-03-27 05:49:00,29.5,23.1,30.06,SW,225,2.2,2.5,77,0.00,,,0.00,WUHU216HW,2013-03-27 09:49:00,
2013-03-27 05:54:00,29.7,23.7,30.06,West,270,0.0,2.2,78,0.00,,,0.00,WUHU216HW,2013-03-27 09:54:00,
2013-03-27 05:59:00,29.2,23.5,30.07,East,90,0.4,1.8,79,0.00,,,0.00,WUHU216HW,2013-03-27 09:59:00,
2013-03-27 06:04:00,28.4,23.3,30.07,ENE,68,0.4,1.1,81,0.00,,,0.00,WUHU216HW,2013-03-27 10:04:00,
2013-03-27 06:10:00,28.1,22.4,30.08,ESE,113,1.3,1.3,79,0.00,,,0.00,WUHU216HW,2013-03-27 10:10:00,
2013-03-27 06:15:00,27.9,22.2,30.08,SE,135,2.7,2.7,79,0.00,,,0.00,WUHU216HW,2013-03-27 10:15:00,
2013-03-27 06:20:00,27.7,22.1,30.08,SE,135,0.9,2.7,79,0.00,,,0.00,WUHU216HW,2013-03-27 10:20:00,
2013-03-27 06:25:00,27.7,22.1,30.08,SSE,158,0.7,2.5,79,0.00,,,0.00,WUHU216HW,2013-03-27 10:25:00,
2013-03-27 06:30:00,27.7,22.6,30.08,South,180,0.4,1.6,81,0.00,,,0.00,WUHU216HW,2013-03-27 10:30:00,
2013-03-27 06:35:00,27.7,22.9,30.09,South,180,0.4,1.3,82,0.00,,,0.00,WUHU216HW,2013-03-27 10:35:00,
2013-03-27 06:40:00,27.7,22.6,30.09,SSE,158,0.4,1.3,81,0.00,,,0.00,WUHU216HW,2013-03-27 10:40:00,
2013-03-27 06:45:00,27.9,23.0,30.09,SSE,158,1.1,1.3,82,0.00,,,0.00,WUHU216HW,2013-03-27 10:45:00,
2013-03-27 06:50:00,28.1,23.0,30.09,SSW,203,0.7,1.1,81,0.00,,,0.00,WUHU216HW,2013-03-27 10:50:00,
2013-03-27 06:55:00,28.1,23.2,30.09,SSW,203,1.6,1.8,82,0.00,,,0.00,WUHU216HW,2013-03-27 10:55:00,
2013-03-27 07:00:00,28.3,23.1,30.09,WSW,248,0.2,1.8,81,0.00,,,0.00,WUHU216HW,2013-03-27 11:00:00,
2013-03-27 07:05:00,28.3,23.4,30.09,SW,225,1.8,1.8,82,0.00,,,0.00,WUHU216HW,2013-03-27 11:05:00,
2013-03-27 07:10:00,28.3,23.4,30.09,SW,225,1.3,1.8,82,0.00,,,0.00,WUHU216HW,2013-03-27 11:10:00,
2013-03-27 07:15:00,28.3,23.1,30.09,WSW,248,0.2,1.3,81,0.00,,,0.00,WUHU216HW,2013-03-27 11:15:00,
2013-03-27 07:20:00,28.1,22.7,30.09,WNW,293,0.0,0.9,80,0.00,,,0.00,WUHU216HW,2013-03-27 11:20:00,
2013-03-27 07:25:00,28.6,23.0,30.09,WNW,293,0.4,0.7,79,0.00,,,0.00,WUHU216HW,2013-03-27 11:25:00,
2013-03-27 07:30:00,28.6,22.6,30.09,West,270,0.4,0.7,78,0.00,,,0.00,WUHU216HW,2013-03-27 11:30:00,
2013-03-27 07:35:00,29.2,23.1,30.10,West,270,0.4,0.7,78,0.00,,,0.00,WUHU216HW,2013-03-27 11:35:00,
2013-03-27 07:40:00,29.7,23.3,30.10,WNW,293,0.4,0.4,77,0.00,,,0.00,WUHU216HW,2013-03-27 11:40:00,
2013-03-27 07:45:00,29.9,23.5,30.10,WNW,293,0.4,0.4,77,0.00,,,0.00,WUHU216HW,2013-03-27 11:45:00,
2013-03-27 07:50:00,30.6,24.2,30.10,West,270,0.4,0.9,77,0.00,,,0.00,WUHU216HW,2013-03-27 11:50:00,
2013-03-27 07:55:00,30.8,24.1,30.10,West,270,0.4,0.9,76,0.00,,,0.00,WUHU216HW,2013-03-27 11:55:00,
2013-03-27 08:00:00,31.7,24.7,30.10,West,270,0.0,0.9,75,0.00,,,0.00,WUHU216HW,2013-03-27 12:00:00,
2013-03-27 08:05:00,32.6,25.2,30.10,West,270,0.0,0.7,74,0.00,,,0.00,WUHU216HW,2013-03-27 12:05:00,
2013-03-27 08:10:00,32.8,24.7,30.11,West,270,0.4,0.7,72,0.00,,,0.00,WUHU216HW,2013-03-27 12:10:00,
2013-03-27 08:15:00,32.6,24.8,30.11,WSW,248,0.7,0.7,73,0.00,,,0.00,WUHU216HW,2013-03-27 12:15:00,
2013-03-27 08:20:00,32.9,25.2,30.11,WSW,248,0.2,0.7,73,0.00,,,0.00,WUHU216HW,2013-03-27 12:20:00,
2013-03-27 08:25:00,32.8,24.7,30.11,WSW,248,0.7,1.1,72,0.00,,,0.00,WUHU216HW,2013-03-27 12:25:00,
2013-03-27 08:30:00,32.8,25.0,30.11,West,270,0.7,1.1,73,0.00,,,0.00,WUHU216HW,2013-03-27 12:30:00,
2013-03-27 08:35:00,33.7,25.8,30.12,NW,315,1.1,1.1,73,0.00,,,0.00,WUHU216HW,2013-03-27 12:35:00,
2013-03-27 08:40:00,34.2,25.8,30.12,West,270,0.9,1.1,71,0.00,,,0.00,WUHU216HW,2013-03-27 12:40:00,
2013-03-27 08:45:00,34.9,26.5,30.12,West,270,0.4,1.1,71,0.00,,,0.00,WUHU216HW,2013-03-27 12:45:00,
2013-03-27 08:50:00,36.0,27.6,30.12,WNW,293,0.4,1.8,71,0.00,,,0.00,WUHU216HW,2013-03-27 12:50:00,
2013-03-27 08:55:00,36.4,27.2,30.13,West,270,1.1,1.8,69,0.00,,,0.00,WUHU216HW,2013-03-27 12:55:00,
2013-03-27 09:00:00,36.0,26.8,30.13,West,270,0.7,1.3,69,0.00,,,0.00,WUHU216HW,2013-03-27 13:00:00,
2013-03-27 09:05:00,35.8,27.0,30.13,WSW,248,1.8,1.8,70,0.00,,,0.00,WUHU216HW,2013-03-27 13:05:00,
2013-03-27 09:10:00,36.4,27.9,30.13,West,270,0.9,1.8,71,0.00,,,0.00,WUHU216HW,2013-03-27 13:10:00,
2013-03-27 09:15:00,36.7,27.9,30.13,West,270,1.8,1.8,70,0.00,,,0.00,WUHU216HW,2013-03-27 13:15:00,
2013-03-27 09:20:00,36.7,27.9,30.13,NW,315,1.1,1.8,70,0.00,,,0.00,WUHU216HW,2013-03-27 13:20:00,
2013-03-27 09:25:00,37.4,28.3,30.13,WSW,248,1.1,2.5,69,0.00,,,0.00,WUHU216HW,2013-03-27 13:25:00,
2013-03-27 09:30:00,37.6,28.5,30.13,WNW,293,1.1,2.5,69,0.00,,,0.00,WUHU216HW,2013-03-27 13:30:00,
2013-03-27 09:35:00,38.0,28.7,30.13,NW,315,2.0,2.0,69,0.00,,,0.00,WUHU216HW,2013-03-27 13:35:00,
2013-03-27 09:40:00,38.9,29.2,30.13,West,270,1.1,2.0,68,0.00,,,0.00,WUHU216HW,2013-03-27 13:40:00,
2013-03-27 09:45:00,39.1,29.0,30.13,WNW,293,0.7,2.0,67,0.00,,,0.00,WUHU216HW,2013-03-27 13:45:00,
2013-03-27 09:50:00,38.5,28.4,30.13,WNW,293,1.3,2.9,67,0.00,,,0.00,WUHU216HW,2013-03-27 13:50:00,
2013-03-27 09:55:00,38.5,28.4,30.13,West,270,1.1,2.9,67,0.00,,,0.00,WUHU216HW,2013-03-27 13:55:00,
2013-03-27 10:00:00,38.5,28.4,30.13,WSW,248,1.8,2.5,67,0.00,,,0.00,WUHU216HW,2013-03-27 14:00:00,
2013-03-27 10:05:00,38.9,28.8,30.13,WSW,248,2.0,2.5,67,0.00,,,0.00,WUHU216HW,2013-03-27 14:05:00,
2013-03-27 10:10:00,39.1,28.2,30.13,West,270,1.1,2.5,65,0.00,,,0.00,WUHU216HW,2013-03-27 14:10:00,
2013-03-27 10:15:00,39.4,28.5,30.13,NW,315,1.8,2.5,65,0.00,,,0.00,WUHU216HW,2013-03-27 14:15:00,
2013-03-27 10:20:00,40.0,29.1,30.13,NW,315,1.3,2.9,65,0.00,,,0.00,WUHU216HW,2013-03-27 14:20:00,
2013-03-27 10:25:00,40.1,28.9,30.13,WSW,248,2.5,2.9,64,0.00,,,0.00,WUHU216HW,2013-03-27 14:25:00,
2013-03-27 10:30:00,40.1,28.5,30.13,WNW,293,4.5,4.7,63,0.00,,,0.00,WUHU216HW,2013-03-27 14:30:00,
2013-03-27 10:35:00,40.0,28.4,30.13,West,270,6.9,6.9,63,0.00,,,0.00,WUHU216HW,2013-03-27 14:35:00,
2013-03-27 10:40:00,40.0,27.5,30.13,West,270,4.0,6.9,61,0.00,,,0.00,WUHU216HW,2013-03-27 14:40:00,
2013-03-27 10:45:00,40.0,27.5,30.13,West,270,3.4,6.0,61,0.00,,,0.00,WUHU216HW,2013-03-27 14:45:00,
2013-03-27 10:50:00,40.1,27.7,30.13,NW,315,2.5,4.7,61,0.00,,,0.00,WUHU216HW,2013-03-27 14:50:00,
2013-03-27 10:55:00,40.1,27.4,30.13,West,270,4.9,5.1,60,0.00,,,0.00,WUHU216HW,2013-03-27 14:55:00,
2013-03-27 11:00:00,39.8,27.0,30.13,West,270,3.6,6.0,60,0.00,,,0.00,WUHU216HW,2013-03-27 15:00:00,
2013-03-27 11:05:00,40.1,27.7,30.13,WSW,248,3.1,6.0,61,0.00,,,0.00,WUHU216HW,2013-03-27 15:05:00,
2013-03-27 11:10:00,40.3,27.5,30.13,West,270,2.2,6.3,60,0.00,,,0.00,WUHU216HW,2013-03-27 15:10:00,
2013-03-27 11:15:00,40.7,27.5,30.13,WNW,293,6.7,6.7,59,0.00,,,0.00,WUHU216HW,2013-03-27 15:15:00,
2013-03-27 11:20:00,41.0,27.8,30.13,WNW,293,4.9,6.7,59,0.00,,,0.00,WUHU216HW,2013-03-27 15:20:00,
2013-03-27 11:25:00,41.2,27.1,30.13,WNW,293,4.0,6.7,57,0.00,,,0.00,WUHU216HW,2013-03-27 15:25:00,
2013-03-27 11:30:00,41.2,27.1,30.13,WNW,293,4.0,6.7,57,0.00,,,0.00,WUHU216HW,2013-03-27 15:30:00,
2013-03-27 11:35:00,41.4,26.8,30.13,WSW,248,5.4,6.3,56,0.00,,,0.00,WUHU216HW,2013-03-27 15:35:00,
2013-03-27 11:40:00,41.8,27.2,30.13,WSW,248,3.6,5.8,56,0.00,,,0.00,WUHU216HW,2013-03-27 15:40:00,
2013-03-27 11:45:00,42.3,27.6,30.13,West,270,6.9,6.9,56,0.00,,,0.00,WUHU216HW,2013-03-27 15:45:00,
2013-03-27 11:50:00,41.9,26.9,30.13,West,270,3.4,6.9,55,0.00,,,0.00,WUHU216HW,2013-03-27 15:50:00,
2013-03-27 11:55:00,42.1,26.7,30.13,WSW,248,7.2,7.2,54,0.00,,,0.00,WUHU216HW,2013-03-27 15:55:00,
2013-03-27 12:00:00,41.9,26.5,30.13,West,270,3.6,7.2,54,0.00,,,0.00,WUHU216HW,2013-03-27 16:00:00,
2013-03-27 12:05:00,42.1,27.0,30.13,West,270,2.2,6.9,55,0.00,,,0.00,WUHU216HW,2013-03-27 16:05:00,
2013-03-27 12:10:00,42.1,26.7,30.13,NW,315,6.7,6.7,54,0.00,,,0.00,WUHU216HW,2013-03-27 16:10:00,
2013-03-27 12:15:00,42.3,26.7,30.13,WNW,293,4.5,6.7,54,0.00,,,0.00,WUHU216HW,2013-03-27 16:15:00,
2013-03-27 12:20:00,42.5,26.9,30.13,WSW,248,6.3,6.3,54,0.00,,,0.00,WUHU216HW,2013-03-27 16:20:00,
2013-03-27 12:25:00,43.2,28.1,30.13,NW,315,5.8,6.3,55,0.00,,,0.00,WUHU216HW,2013-03-27 16:25:00,
2013-03-27 12:30:00,42.7,26.6,30.13,NW,315,4.5,7.2,53,0.00,,,0.00,WUHU216HW,2013-03-27 16:30:00,
2013-03-27 12:35:00,43.2,27.2,30.13,WSW,248,2.7,7.2,53,0.00,,,0.00,WUHU216HW,2013-03-27 16:35:00,
2013-03-27 12:40:00,43.7,27.7,30.13,WSW,248,6.5,6.9,53,0.00,,,0.00,WUHU216HW,2013-03-27 16:40:00,
2013-03-27 12:45:00,42.8,26.0,30.13,NW,315,5.4,9.8,51,0.00,,,0.00,WUHU216HW,2013-03-27 16:45:00,
2013-03-27 12:50:00,42.8,26.8,30.13,West,270,4.0,9.8,53,0.00,,,0.00,WUHU216HW,2013-03-27 16:50:00,
2013-03-27 12:55:00,43.6,26.2,30.13,WNW,293,5.4,7.2,50,0.00,,,0.00,WUHU216HW,2013-03-27 16:55:00,
2013-03-27 13:00:00,43.2,26.7,30.13,WNW,293,4.7,7.2,52,0.00,,,0.00,WUHU216HW,2013-03-27 17:00:00,
2013-03-27 13:05:00,43.7,27.7,30.13,West,270,3.4,6.5,53,0.00,,,0.00,WUHU216HW,2013-03-27 17:05:00,
2013-03-27 13:10:00,43.6,26.6,30.13,West,270,3.6,6.5,51,0.00,,,0.00,WUHU216HW,2013-03-27 17:10:00,
2013-03-27 13:15:00,42.8,26.5,30.13,WNW,293,2.5,6.9,52,0.00,,,0.00,WUHU216HW,2013-03-27 17:15:00,
2013-03-27 13:20:00,43.0,26.6,30.13,WSW,248,2.7,6.9,52,0.00,,,0.00,WUHU216HW,2013-03-27 17:20:00,
2013-03-27 13:25:00,42.8,26.8,30.13,WNW,293,2.9,5.6,53,0.00,,,0.00,WUHU216HW,2013-03-27 17:25:00,
2013-03-27 13:30:00,42.3,25.9,30.13,West,270,4.0,5.6,52,0.00,,,0.00,WUHU216HW,2013-03-27 17:30:00,
2013-03-27 13:35:00,42.1,25.3,30.13,West,270,5.4,7.4,51,0.00,,,0.00,WUHU216HW,2013-03-27 17:35:00,
2013-03-27 13:40:00,42.3,25.5,30.13,WNW,293,6.3,7.4,51,0.00,,,0.00,WUHU216HW,2013-03-27 17:40:00,
2013-03-27 13:45:00,43.7,27.3,30.13,WSW,248,4.5,6.5,52,0.00,,,0.00,WUHU216HW,2013-03-27 17:45:00,
2013-03-27 13:50:00,43.2,25.9,30.13,SW,225,3.4,6.5,50,0.00,,,0.00,WUHU216HW,2013-03-27 17:50:00,
2013-03-27 13:55:00,43.2,26.3,30.13,NW,315,3.4,8.1,51,0.00,,,0.00,WUHU216HW,2013-03-27 17:55:00,
2013-03-27 14:00:00,43.2,26.3,30.13,West,270,3.8,8.1,51,0.00,,,0.00,WUHU216HW,2013-03-27 18:00:00,
2013-03-27 14:05:00,43.0,26.2,30.13,WNW,293,4.5,6.0,51,0.00,,,0.00,WUHU216HW,2013-03-27 18:05:00,
2013-03-27 14:10:00,43.4,26.9,30.13,West,270,4.0,5.8,52,0.00,,,0.00,WUHU216HW,2013-03-27 18:10:00,
2013-03-27 14:15:00,43.2,26.3,30.13,WNW,293,3.1,4.7,51,0.00,,,0.00,WUHU216HW,2013-03-27 18:15:00,
2013-03-27 14:20:00,43.0,26.2,30.13,NNW,338,4.0,5.4,51,0.00,,,0.00,WUHU216HW,2013-03-27 18:20:00,
2013-03-27 14:25:00,42.8,26.0,30.13,WNW,293,5.6,6.3,51,0.00,,,0.00,WUHU216HW,2013-03-27 18:25:00,
2013-03-27 14:30:00,43.2,27.2,30.13,WSW,248,4.7,7.4,53,0.00,,,0.00,WUHU216HW,2013-03-27 18:30:00,
2013-03-27 14:35:00,43.2,27.2,30.13,West,270,4.7,7.4,53,0.00,,,0.00,WUHU216HW,2013-03-27 18:35:00,
2013-03-27 14:40:00,42.3,25.9,30.13,West,270,4.0,11.9,52,0.00,,,0.00,WUHU216HW,2013-03-27 18:40:00,
2013-03-27 14:45:00,42.7,26.3,30.13,WSW,248,4.3,11.9,52,0.00,,,0.00,WUHU216HW,2013-03-27 18:45:00,
2013-03-27 14:50:00,43.0,26.6,30.13,NW,315,4.7,6.9,52,0.00,,,0.00,WUHU216HW,2013-03-27 18:50:00,
2013-03-27 14:55:00,43.2,26.7,30.13,West,270,4.3,6.7,52,0.00,,,0.00,WUHU216HW,2013-03-27 18:55:00,
2013-03-27 15:00:00,43.6,26.6,30.13,West,270,5.6,6.5,51,0.00,,,0.00,WUHU216HW,2013-03-27 19:00:00,
2013-03-27 15:05:00,44.3,27.3,30.13,WNW,293,4.3,6.5,51,0.00,,,0.00,WUHU216HW,2013-03-27 19:05:00,
2013-03-27 15:10:00,44.1,26.7,30.13,NW,315,6.3,6.3,50,0.00,,,0.00,WUHU216HW,2013-03-27 19:10:00,
2013-03-27 15:15:00,43.9,26.6,30.13,West,270,4.0,6.3,50,0.00,,,0.00,WUHU216HW,2013-03-27 19:15:00,
2013-03-27 15:20:00,42.8,25.6,30.13,West,270,5.6,6.3,50,0.00,,,0.00,WUHU216HW,2013-03-27 19:20:00,
2013-03-27 15:25:00,43.0,25.8,30.12,WSW,248,5.1,6.3,50,0.00,,,0.00,WUHU216HW,2013-03-27 19:25:00,
2013-03-27 15:30:00,42.8,26.0,30.12,WSW,248,4.5,8.5,51,0.00,,,0.00,WUHU216HW,2013-03-27 19:30:00,
2013-03-27 15:35:00,42.8,25.6,30.12,WSW,248,6.0,8.5,50,0.00,,,0.00,WUHU216HW,2013-03-27 19:35:00,
2013-03-27 15:40:00,42.5,25.7,30.12,WNW,293,2.5,6.3,51,0.00,,,0.00,WUHU216HW,2013-03-27 19:40:00,
2013-03-27 15:45:00,42.7,25.8,30.12,West,270,6.3,6.3,51,0.00,,,0.00,WUHU216HW,2013-03-27 19:45:00,
2013-03-27 15:50:00,43.2,25.4,30.12,NW,315,7.2,7.4,49,0.00,,,0.00,WUHU216HW,2013-03-27 19:50:00,
2013-03-27 15:55:00,43.6,25.1,30.12,WSW,248,9.6,9.6,48,0.00,,,0.00,WUHU216HW,2013-03-27 19:55:00,
2013-03-27 16:00:00,43.2,24.3,30.13,WSW,248,7.6,9.6,47,0.00,,,0.00,WUHU216HW,2013-03-27 20:00:00,
2013-03-27 16:05:00,42.8,25.0,30.12,West,270,5.4,8.5,49,0.00,,,0.00,WUHU216HW,2013-03-27 20:05:00,
2013-03-27 16:10:00,42.5,24.7,30.12,West,270,6.0,6.5,49,0.00,,,0.00,WUHU216HW,2013-03-27 20:10:00,
2013-03-27 16:15:00,42.3,24.5,30.12,WNW,293,2.2,6.9,49,0.00,,,0.00,WUHU216HW,2013-03-27 20:15:00,
2013-03-27 16:20:00,42.5,25.2,30.12,North,0,3.4,6.9,50,0.00,,,0.00,WUHU216HW,2013-03-27 20:20:00,
2013-03-27 16:25:00,43.9,27.0,30.12,WNW,293,4.7,8.7,51,0.00,,,0.00,WUHU216HW,2013-03-27 20:25:00,
2013-03-27 16:30:00,43.6,26.2,30.12,WSW,248,6.7,8.7,50,0.00,,,0.00,WUHU216HW,2013-03-27 20:30:00,
2013-03-27 16:35:00,43.2,25.4,30.12,WNW,293,4.9,9.6,49,0.00,,,0.00,WUHU216HW,2013-03-27 20:35:00,
2013-03-27 16:40:00,43.7,25.3,30.12,WNW,293,5.6,9.6,48,0.00,,,0.00,WUHU216HW,2013-03-27 20:40:00,
2013-03-27 16:45:00,43.6,25.1,30.12,NNW,338,6.9,6.9,48,0.00,,,0.00,WUHU216HW,2013-03-27 20:45:00,
2013-03-27 16:50:00,43.9,24.9,30.12,West,270,4.7,8.7,47,0.00,,,0.00,WUHU216HW,2013-03-27 20:50:00,
2013-03-27 16:55:00,43.9,25.5,30.12,WSW,248,7.2,8.7,48,0.00,,,0.00,WUHU216HW,2013-03-27 20:55:00,
2013-03-27 17:00:00,44.1,25.1,30.12,WNW,293,5.4,8.7,47,0.00,,,0.00,WUHU216HW,2013-03-27 21:00:00,
2013-03-27 17:06:00,43.7,24.8,30.12,WSW,248,5.4,6.3,47,0.00,,,0.00,WUHU216HW,2013-03-27 21:06:00,
2013-03-27 17:11:00,43.2,24.9,30.12,WNW,293,4.0,6.3,48,0.00,,,0.00,WUHU216HW,2013-03-27 21:11:00,
2013-03-27 17:16:00,43.0,24.7,30.12,NW,315,4.3,6.0,48,0.00,,,0.00,WUHU216HW,2013-03-27 21:16:00,
2013-03-27 17:21:00,43.6,25.1,30.12,WSW,248,4.9,8.5,48,0.00,,,0.00,WUHU216HW,2013-03-27 21:21:00,
2013-03-27 17:26:00,43.6,24.6,30.12,West,270,7.4,8.5,47,0.00,,,0.00,WUHU216HW,2013-03-27 21:26:00,
2013-03-27 17:31:00,43.0,24.7,30.12,WSW,248,3.1,8.9,48,0.00,,,0.00,WUHU216HW,2013-03-27 21:31:00,
2013-03-27 17:36:00,43.0,24.1,30.12,West,270,4.3,8.9,47,0.00,,,0.00,WUHU216HW,2013-03-27 21:36:00,
2013-03-27 17:41:00,42.8,24.5,30.12,WNW,293,4.9,6.5,48,0.00,,,0.00,WUHU216HW,2013-03-27 21:41:00,
2013-03-27 17:46:00,43.2,24.9,30.12,West,270,4.7,5.8,48,0.00,,,0.00,WUHU216HW,2013-03-27 21:46:00,
2013-03-27 17:51:00,43.4,24.9,30.12,NW,315,4.3,7.6,48,0.00,,,0.00,WUHU216HW,2013-03-27 21:51:00,
2013-03-27 17:56:00,43.9,26.0,30.12,WSW,248,4.9,7.6,49,0.00,,,0.00,WUHU216HW,2013-03-27 21:56:00,
2013-03-27 18:01:00,43.9,25.5,30.12,West,270,4.7,6.9,48,0.00,,,0.00,WUHU216HW,2013-03-27 22:01:00,
2013-03-27 18:06:00,43.9,25.5,30.12,WNW,293,4.7,6.9,48,0.00,,,0.00,WUHU216HW,2013-03-27 22:06:00,
2013-03-27 18:11:00,43.6,25.1,30.12,West,270,3.8,5.4,48,0.00,,,0.00,WUHU216HW,2013-03-27 22:11:00,
2013-03-27 18:16:00,43.0,24.7,30.13,West,270,5.6,6.3,48,0.00,,,0.00,WUHU216HW,2013-03-27 22:16:00,
2013-03-27 18:21:00,42.8,23.9,30.13,NW,315,5.6,6.3,47,0.00,,,0.00,WUHU216HW,2013-03-27 22:21:00,
2013-03-27 18:26:00,42.7,24.3,30.13,West,270,2.2,6.9,48,0.00,,,0.00,WUHU216HW,2013-03-27 22:26:00,
2013-03-27 18:31:00,42.5,24.7,30.13,West,270,4.5,6.9,49,0.00,,,0.00,WUHU216HW,2013-03-27 22:31:00,
2013-03-27 18:36:00,42.3,23.9,30.13,WSW,248,3.4,5.1,48,0.00,,,0.00,WUHU216HW,2013-03-27 22:36:00,
2013-03-27 18:41:00,42.1,24.3,30.13,WSW,248,4.7,5.1,49,0.00,,,0.00,WUHU216HW,2013-03-27 22:41:00,
2013-03-27 18:46:00,41.9,24.1,30.13,WNW,293,4.5,4.7,49,0.00,,,0.00,WUHU216HW,2013-03-27 22:46:00,
2013-03-27 18:51:00,42.1,24.3,30.14,West,270,2.9,4.9,49,0.00,,,0.00,WUHU216HW,2013-03-27 22:51:00,
2013-03-27 18:56:00,42.3,24.5,30.13,West,270,4.0,4.9,49,0.00,,,0.00,WUHU216HW,2013-03-27 22:56:00,
2013-03-27 19:01:00,41.8,23.9,30.14,WNW,293,3.1,5.6,49,0.00,,,0.00,WUHU216HW,2013-03-27 23:01:00,
2013-03-27 19:06:00,41.0,24.2,30.14,WSW,248,2.9,5.6,51,0.00,,,0.00,WUHU216HW,2013-03-27 23:06:00,
2013-03-27 19:11:00,40.5,23.8,30.14,WSW,248,1.1,3.6,51,0.00,,,0.00,WUHU216HW,2013-03-27 23:11:00,
2013-03-27 19:16:00,40.0,23.7,30.14,West,270,2.5,4.5,52,0.00,,,0.00,WUHU216HW,2013-03-27 23:16:00,
2013-03-27 19:21:00,40.1,23.4,30.15,West,270,5.4,5.4,51,0.00,,,0.00,WUHU216HW,2013-03-27 23:21:00,
2013-03-27 19:26:00,40.0,23.7,30.14,WSW,248,2.9,5.4,52,0.00,,,0.00,WUHU216HW,2013-03-27 23:26:00,
2013-03-27 19:31:00,39.8,23.5,30.14,WSW,248,2.0,4.0,52,0.00,,,0.00,WUHU216HW,2013-03-27 23:31:00,
2013-03-27 19:36:00,39.4,23.6,30.15,West,270,1.8,3.4,53,0.00,,,0.00,WUHU216HW,2013-03-27 23:36:00,
2013-03-27 19:41:00,39.1,23.7,30.15,WSW,248,1.1,3.4,54,0.00,,,0.00,WUHU216HW,2013-03-27 23:41:00,
2013-03-27 19:46:00,38.2,23.3,30.15,WSW,248,1.1,1.8,55,0.00,,,0.00,WUHU216HW,2013-03-27 23:46:00,
2013-03-27 19:51:00,37.8,23.4,30.15,West,270,0.7,1.3,56,0.00,,,0.00,WUHU216HW,2013-03-27 23:51:00,
2013-03-27 20:00:00,37.4,23.6,30.15,West,270,0.0,1.3,57,0.00,,,0.00,WUHU216HW,2013-03-28 00:00:00,
2013-03-27 20:09:00,36.7,23.8,30.16,WSW,248,0.0,1.6,59,0.00,,,0.00,WUHU216HW,2013-03-28 00:09:00,
2013-03-27 20:18:00,36.4,24.6,30.16,SW,225,0.4,0.9,62,0.00,,,0.00,WUHU216HW,2013-03-28 00:18:00,
2013-03-27 20:23:00,36.4,24.9,30.16,SSE,158,0.9,0.9,63,0.00,,,0.00,WUHU216HW,2013-03-28 00:23:00,
2013-03-27 20:28:00,36.4,24.2,30.16,WNW,293,0.4,0.9,61,0.00,,,0.00,WUHU216HW,2013-03-28 00:28:00,
2013-03-27 20:33:00,36.9,24.4,30.16,WSW,248,0.0,0.4,60,0.00,,,0.00,WUHU216HW,2013-03-28 00:33:00,
2013-03-27 20:38:00,37.1,24.5,30.16,West,270,0.4,0.4,60,0.00,,,0.00,WUHU216HW,2013-03-28 00:38:00,
2013-03-27 20:43:00,37.1,24.5,30.16,SW,225,0.0,0.4,60,0.00,,,0.00,WUHU216HW,2013-03-28 00:43:00,
2013-03-27 20:48:00,36.7,24.2,30.16,SW,225,0.0,0.4,60,0.00,,,0.00,WUHU216HW,2013-03-28 00:48:00,
2013-03-27 20:53:00,36.4,24.2,30.16,SE,135,0.7,0.7,61,0.00,,,0.00,WUHU216HW,2013-03-28 00:53:00,
2013-03-27 20:58:00,36.2,24.0,30.16,SE,135,1.3,1.3,61,0.00,,,0.00,WUHU216HW,2013-03-28 00:58:00,
2013-03-27 21:03:00,36.0,24.3,30.16,SSE,158,0.4,2.0,62,0.00,,,0.00,WUHU216HW,2013-03-28 01:03:00,
2013-03-27 21:08:00,36.0,25.0,30.16,SSW,203,2.5,2.5,64,0.00,,,0.00,WUHU216HW,2013-03-28 01:08:00,
2013-03-27 21:13:00,36.0,25.0,30.16,SE,135,0.4,2.5,64,0.00,,,0.00,WUHU216HW,2013-03-28 01:13:00,
2013-03-27 21:18:00,35.8,24.5,30.17,SSE,158,1.6,1.8,63,0.00,,,0.00,WUHU216HW,2013-03-28 01:18:00,
2013-03-27 21:23:00,35.8,24.5,30.17,SE,135,1.8,1.8,63,0.00,,,0.00,WUHU216HW,2013-03-28 01:23:00,
2013-03-27 21:28:00,35.8,24.5,30.17,SE,135,1.3,1.8,63,0.00,,,0.00,WUHU216HW,2013-03-28 01:28:00,
2013-03-27 21:33:00,35.8,24.9,30.17,SE,135,2.7,2.7,64,0.00,,,0.00,WUHU216HW,2013-03-28 01:33:00,
2013-03-27 21:38:00,35.6,24.3,30.17,South,180,0.4,2.7,63,0.00,,,0.00,WUHU216HW,2013-03-28 01:38:00,
2013-03-27 21:43:00,35.3,24.3,30.17,SE,135,0.7,1.8,64,0.00,,,0.00,WUHU216HW,2013-03-28 01:43:00,
2013-03-27 21:48:00,35.3,24.3,30.17,SW,225,0.4,0.9,64,0.00,,,0.00,WUHU216HW,2013-03-28 01:48:00,
2013-03-27 21:53:00,35.1,24.1,30.17,WSW,248,0.4,1.1,64,0.00,,,0.00,WUHU216HW,2013-03-28 01:53:00,
2013-03-27 21:58:00,34.7,23.8,30.17,WSW,248,0.0,1.1,64,0.00,,,0.00,WUHU216HW,2013-03-28 01:58:00,
2013-03-27 22:03:00,34.2,23.2,30.17,WSW,248,0.2,0.2,64,0.00,,,0.00,WUHU216HW,2013-03-28 02:03:00,
2013-03-27 22:08:00,33.7,23.4,30.17,SW,225,0.2,0.4,66,0.00,,,0.00,WUHU216HW,2013-03-28 02:08:00,
2013-03-27 22:13:00,33.3,23.5,30.17,WSW,248,0.4,0.4,67,0.00,,,0.00,WUHU216HW,2013-03-28 02:13:00,
2013-03-27 22:18:00,33.1,24.0,30.17,WSW,248,0.0,0.4,69,0.00,,,0.00,WUHU216HW,2013-03-28 02:18:00,
2013-03-27 22:23:00,32.8,23.7,30.17,WSW,248,0.0,0.0,69,0.00,,,0.00,WUHU216HW,2013-03-28 02:23:00,
2013-03-27 22:28:00,32.4,23.1,30.17,SW,225,0.0,0.0,68,0.00,,,0.00,WUHU216HW,2013-03-28 02:28:00,
2013-03-27 22:33:00,32.4,23.1,30.17,SW,225,0.0,0.0,68,0.00,,,0.00,WUHU216HW,2013-03-28 02:33:00,
2013-03-27 22:38:00,32.2,22.9,30.17,SW,225,0.0,0.0,68,0.00,,,0.00,WUHU216HW,2013-03-28 02:38:00,
2013-03-27 22:43:00,32.0,23.0,30.17,SSW,203,0.0,0.0,69,0.00,,,0.00,WUHU216HW,2013-03-28 02:43:00,
2013-03-27 22:48:00,32.0,23.4,30.17,SSW,203,0.2,0.2,70,0.00,,,0.00,WUHU216HW,2013-03-28 02:48:00,
2013-03-27 22:53:00,31.9,23.9,30.17,SW,225,0.0,0.4,72,0.00,,,0.00,WUHU216HW,2013-03-28 02:53:00,
2013-03-27 22:58:00,31.5,22.9,30.17,WSW,248,0.0,0.4,70,0.00,,,0.00,WUHU216HW,2013-03-28 02:58:00,
2013-03-27 23:03:00,31.5,22.5,30.17,NW,315,0.2,1.1,69,0.00,,,0.00,WUHU216HW,2013-03-28 03:03:00,
2013-03-27 23:08:00,31.3,22.7,30.17,West,270,0.0,1.1,70,0.00,,,0.00,WUHU216HW,2013-03-28 03:08:00,
2013-03-27 23:13:00,31.3,22.7,30.17,WNW,293,0.4,1.1,70,0.00,,,0.00,WUHU216HW,2013-03-28 03:13:00,
2013-03-27 23:18:00,31.3,23.1,30.17,WNW,293,0.0,0.4,71,0.00,,,0.00,WUHU216HW,2013-03-28 03:18:00,
2013-03-27 23:23:00,31.3,22.7,30.17,WNW,293,0.4,1.1,70,0.00,,,0.00,WUHU216HW,2013-03-28 03:23:00,
2013-03-27 23:28:00,31.3,22.7,30.17,WNW,293,0.0,1.1,70,0.00,,,0.00,WUHU216HW,2013-03-28 03:28:00,
2013-03-27 23:33:00,31.5,23.2,30.17,SW,225,0.0,0.7,71,0.00,,,0.00,WUHU216HW,2013-03-28 03:33:00,
2013-03-27 23:38:00,31.7,23.4,30.17,WSW,248,0.0,1.3,71,0.00,,,0.00,WUHU216HW,2013-03-28 03:38:00,
2013-03-27 23:43:00,31.7,23.4,30.18,WSW,248,0.0,1.3,71,0.00,,,0.00,WUHU216HW,2013-03-28 03:43:00,
2013-03-27 23:48:00,31.7,23.4,30.18,WSW,248,0.0,0.0,71,0.00,,,0.00,WUHU216HW,2013-03-28 03:48:00,
2013-03-27 23:53:00,31.7,23.4,30.18,West,270,0.0,0.4,71,0.00,,,0.00,WUHU216HW,2013-03-28 03:53:00,
2013-03-27 23:58:00,31.9,23.6,30.17,WNW,293,0.0,0.4,71,0.00,,,0.00,WUHU216HW,2013-03-28 03:58:00,